Location: Rioux
(40.7500°S, 175.7500°E)
Time: 10:27:49
(UTC+00:00)

Cosmos 2034 Rocket - Pass Details

Date: 12 June 2024
Orbit: 958 x 999 km, 82.9° (Epoch: 20 July)

Event Time Altitude Azimuth Distance (km) Brightness Sun altitude
Rises 18:12:13 0° 187° (S) 3,701 6.8 -15.8°
Reaches altitude 10° 18:14:46 10° 185° (S) 2,742 6.1 -15.3°
Maximum altitude 18:21:04 80° 97° (E) 990 4.1 -14.2°
Drops below altitude 10° 18:27:14 10° 10° (N) 2,692 6.7 -13.1°
Sets 18:29:43 0° 8° (N) 3,629 7.4 -12.6°
